TimeCST,TemperatureF,Dew PointF,Humidity,Sea Level PressureIn,VisibilityMPH,Wind Direction,Wind SpeedMPH,Gust SpeedMPH,PrecipitationIn,Events,Conditions,WindDirDegrees,DateUTC
12:53 AM,15.1,8.1,74,30.13,8.0,NW,13.8,24.2,0.00,Snow,Light Snow,310,2014-01-06 06:53:00
1:53 AM,12.9,7.0,77,30.19,5.0,WNW,15.0,23.0,0.00,Snow,Light Snow,290,2014-01-06 07:53:00
2:48 AM,8.6,-0.4,67,30.22,10.0,NW,10.4,26.5,0.00,,Scattered Clouds,310,2014-01-06 08:48:00
2:53 AM,9.0,-0.0,67,30.24,10.0,NW,12.7,19.6,0.00,,Scattered Clouds,310,2014-01-06 08:53:00
3:24 AM,8.1,-0.9,67,30.24,10.0,NW,11.5,20.7,N/A,,Mostly Cloudy,310,2014-01-06 09:24:00
3:53 AM,7.0,-2.9,64,30.27,10.0,NW,11.5,23.0,N/A,,Scattered Clouds,320,2014-01-06 09:53:00
4:11 AM,6.1,-2.9,67,30.26,10.0,WNW,10.4,-,N/A,,Mostly Cloudy,300,2014-01-06 10:11:00
4:45 AM,5.0,-5.1,63,30.28,10.0,WNW,12.7,21.9,N/A,,Scattered Clouds,300,2014-01-06 10:45:00
4:53 AM,5.0,-5.1,63,30.31,10.0,WNW,12.7,24.2,N/A,,Scattered Clouds,290,2014-01-06 10:53:00
5:53 AM,3.9,-6.0,64,30.35,10.0,NW,8.1,24.2,N/A,,Scattered Clouds,310,2014-01-06 11:53:00
6:03 AM,3.9,-6.0,64,30.33,10.0,WNW,13.8,23.0,N/A,,Mostly Cloudy,300,2014-01-06 12:03:00
6:53 AM,3.9,-6.0,64,30.38,7.0,West,17.3,23.0,N/A,,Overcast,280,2014-01-06 12:53:00
7:32 AM,1.9,-11.9,52,30.37,10.0,WNW,12.7,23.0,N/A,,Partly Cloudy,300,2014-01-06 13:32:00
7:53 AM,1.9,-11.9,52,30.41,10.0,NW,9.2,19.6,N/A,,Clear,310,2014-01-06 13:53:00
8:53 AM,3.0,-14.1,45,30.45,10.0,NW,13.8,25.3,N/A,,Clear,310,2014-01-06 14:53:00
9:53 AM,3.9,-9.9,53,30.46,10.0,NW,12.7,21.9,N/A,,Overcast,320,2014-01-06 15:53:00
10:07 AM,3.9,-9.9,53,30.42,10.0,WNW,10.4,18.4,N/A,,Mostly Cloudy,290,2014-01-06 16:07:00
10:53 AM,5.0,-9.9,50,30.45,10.0,NW,16.1,21.9,N/A,,Mostly Cloudy,320,2014-01-06 16:53:00
11:53 AM,3.9,-9.0,55,30.43,10.0,West,13.8,-,N/A,,Mostly Cloudy,280,2014-01-06 17:53:00
12:08 PM,5.0,-7.1,58,30.39,10.0,West,11.5,21.9,N/A,,Overcast,270,2014-01-06 18:08:00
12:53 PM,6.1,-6.0,58,30.42,10.0,WNW,11.5,-,N/A,,Overcast,290,2014-01-06 18:53:00
1:53 PM,7.0,-7.1,53,30.43,10.0,NW,12.7,21.9,N/A,,Overcast,310,2014-01-06 19:53:00
2:12 PM,5.0,-7.1,58,30.40,6.0,WNW,11.5,19.6,N/A,,Haze,300,2014-01-06 20:12:00
2:32 PM,6.1,-8.0,53,30.40,10.0,West,13.8,-,N/A,,Scattered Clouds,280,2014-01-06 20:32:00
2:53 PM,7.0,-5.1,58,30.44,10.0,West,13.8,-,N/A,,Scattered Clouds,270,2014-01-06 20:53:00
3:53 PM,6.1,-9.0,50,30.45,10.0,West,12.7,-,0.00,,Scattered Clouds,270,2014-01-06 21:53:00
4:53 PM,5.0,-6.0,61,30.47,10.0,West,10.4,21.9,N/A,,Scattered Clouds,270,2014-01-06 22:53:00
5:53 PM,3.9,-8.0,58,30.50,10.0,WNW,11.5,20.7,N/A,,Partly Cloudy,290,2014-01-06 23:53:00
6:46 PM,3.9,-5.1,66,30.47,6.0,WNW,8.1,-,N/A,,Haze,300,2014-01-07 00:46:00
6:53 PM,3.9,-5.1,66,30.51,9.0,WNW,6.9,-,N/A,,Overcast,300,2014-01-07 00:53:00
7:04 PM,3.0,-4.0,73,30.48,4.0,WNW,8.1,-,N/A,,Haze,300,2014-01-07 01:04:00
7:11 PM,3.0,-2.9,76,30.48,2.5,NNW,6.9,-,0.00,Snow,Light Snow,330,2014-01-07 01:11:00
7:23 PM,3.0,-2.9,76,30.49,6.0,NW,9.2,-,0.00,,Haze,320,2014-01-07 01:23:00
7:53 PM,1.9,-7.1,66,30.55,10.0,NW,6.9,-,0.00,,Overcast,310,2014-01-07 01:53:00
8:13 PM,1.9,-8.0,63,30.52,10.0,NNW,6.9,-,N/A,,Scattered Clouds,330,2014-01-07 02:13:00
8:53 PM,1.0,-9.0,63,30.57,10.0,NNW,3.5,-,N/A,,Clear,340,2014-01-07 02:53:00
9:53 PM,-0.0,-9.0,66,30.58,10.0,NW,4.6,-,N/A,,Clear,310,2014-01-07 03:53:00
10:53 PM,-0.0,-9.0,66,30.58,10.0,WNW,3.5,-,N/A,,Clear,290,2014-01-07 04:53:00
11:53 PM,-0.0,-8.0,69,30.58,10.0,Calm,Calm,-,N/A,,Partly Cloudy,0,2014-01-07 05:53:00